Location: Ladrillo (historical)
(32.8195°N, 117.2231°W)
Time: 15:29:45
(UTC+00:00)

A-11 Canister half - All Passes

Search period start: 26 February 2021 00:00
Search period end: 08 March 2021 00:00
Orbit: 1524 x 1684 km, 47.3° (Epoch: 25 February)

Date Brightness Start Highest point End Pass type
(mag) Time Alt. Az. Time Alt. Az. Time Alt. Az.
26 Feb - 10:26:33 10° S 10:33:25 22° SE 10:40:08 10° E visible
26 Feb - 12:27:48 10° SW 12:37:32 82° SE 12:46:58 10° NE visible
26 Feb - 14:34:20 10° W 14:43:15 42° NNW 14:52:01 10° NE daylight
26 Feb - 16:42:11 10° WNW 16:50:28 33° N 16:58:40 10° ENE daylight
26 Feb - 18:47:58 10° NW 18:57:08 59° NNE 19:06:19 10° ESE daylight
26 Feb - 20:53:15 10° WNW 21:01:59 48° SW 21:10:52 10° SSE daylight
27 Feb - 10:05:16 10° SSE 10:11:49 20° SE 10:18:13 10° E visible
27 Feb - 12:06:09 10° SW 12:15:53 79° SE 12:25:19 10° NE visible
27 Feb - 14:12:31 10° W 14:21:32 44° NNW 14:30:21 10° NE daylight
27 Feb - 16:20:25 10° WNW 16:28:42 33° N 16:36:53 10° ENE daylight
27 Feb - 18:26:19 10° NW 18:35:27 57° NNE 18:44:35 10° ESE daylight
27 Feb - 20:31:32 10° WNW 20:40:23 51° SW 20:49:20 10° SSE daylight
28 Feb - 09:44:02 10° SSE 09:50:13 19° SE 09:56:16 10° E visible
28 Feb - 11:44:29 10° SW 11:54:13 75° SE 12:03:40 10° NE visible
28 Feb - 13:50:43 10° W 13:59:48 45° NNW 14:08:41 10° NE visible
28 Feb - 15:58:39 10° WNW 16:06:56 33° N 16:15:07 10° ENE daylight
28 Feb - 18:04:39 10° NW 18:13:45 55° NNE 18:22:50 10° ESE daylight
28 Feb - 20:09:50 10° WNW 20:18:46 54° SW 20:27:47 10° SSE daylight
01 Mar - 09:22:49 10° SSE 09:28:36 17° SE 09:34:17 10° E visible
01 Mar - 11:22:50 10° SW 11:32:35 71° SE 11:42:00 10° NE visible
01 Mar - 13:28:54 10° W 13:38:04 46° NNW 13:47:01 10° NE visible
01 Mar - 15:36:53 10° WNW 15:45:11 33° N 15:53:21 10° ENE daylight
01 Mar - 17:42:59 10° NW 17:52:04 53° NNE 18:01:06 10° ESE daylight
01 Mar - 19:48:09 10° WNW 19:57:08 57° SW 20:06:14 10° SSE daylight
01 Mar - 21:58:44 10° WSW 22:00:47 11° WSW 22:02:50 10° SW daylight
02 Mar - 09:01:41 10° SSE 09:07:00 16° ESE 09:12:14 10° E visible
02 Mar - 11:01:13 10° SW 11:10:56 68° SE 11:20:20 10° ENE visible
02 Mar - 13:07:06 10° W 13:16:21 48° NNW 13:25:22 10° NE visible
02 Mar - 15:15:06 10° WNW 15:23:25 33° N 15:31:36 10° ENE daylight
02 Mar - 17:21:19 10° NW 17:30:22 51° NNE 17:39:20 10° E daylight
02 Mar - 19:26:27 10° WNW 19:35:31 60° SW 19:44:40 10° SSE daylight
02 Mar - 21:36:01 10° WSW 21:39:12 12° WSW 21:42:24 10° SW daylight
03 Mar - 08:40:37 10° SSE 08:45:24 15° ESE 08:50:07 10° E visible
03 Mar - 10:39:35 10° SW 10:49:17 65° SE 10:58:40 10° ENE visible
03 Mar - 12:45:18 10° W 12:54:38 50° NNW 13:03:42 10° NE visible
03 Mar - 14:53:19 10° WNW 15:01:39 33° N 15:09:50 10° ENE daylight
03 Mar - 16:59:38 10° NW 17:08:39 49° NNE 17:17:35 10° E daylight
03 Mar - 19:04:46 10° WNW 19:13:54 64° SW 19:23:05 10° SE daylight
03 Mar - 21:13:40 10° W 21:17:37 13° WSW 21:21:37 10° SSW daylight
04 Mar - 08:19:40 10° SSE 08:23:48 13° ESE 08:27:52 10° E visible
04 Mar - 10:17:58 10° SSW 10:27:38 61° SE 10:36:59 10° ENE visible
04 Mar - 12:23:31 10° W 12:32:54 51° NNW 12:42:03 10° NE visible
04 Mar - 14:31:31 10° WNW 14:39:53 33° N 14:48:05 10° ENE daylight
04 Mar - 16:37:57 10° NW 16:46:57 48° NNE 16:55:49 10° E daylight
04 Mar - 18:43:06 10° WNW 18:52:16 67° SW 19:01:30 10° SE daylight
04 Mar - 20:51:27 10° W 20:56:02 15° WSW 21:00:40 10° SSW daylight
05 Mar - 07:58:54 10° SE 08:02:12 12° ESE 08:05:28 10° ESE night (unlit)
05 Mar - 09:56:22 10° SSW 10:05:59 58° SE 10:15:18 10° ENE visible
05 Mar - 12:01:42 10° WSW 12:11:11 53° NNW 12:20:24 10° NE visible
05 Mar - 14:09:43 10° WNW 14:18:07 33° N 14:26:21 10° ENE daylight
05 Mar - 16:16:17 10° NW 16:25:14 46° NNE 16:34:03 10° E daylight
05 Mar - 18:21:24 10° NW 18:30:39 71° SW 18:39:54 10° SE daylight
05 Mar - 20:29:21 10° W 20:34:27 16° WSW 20:39:36 10° SSW daylight
06 Mar - 07:38:30 10° SE 07:40:36 11° ESE 07:42:41 10° ESE night (unlit)
06 Mar - 09:34:46 10° SSW 09:44:21 55° SE 09:53:36 10° ENE visible
06 Mar - 11:39:55 10° WSW 11:49:29 55° NNW 11:58:45 10° NE visible
06 Mar - 13:47:55 10° WNW 13:56:21 33° N 14:04:36 10° ENE visible
06 Mar - 15:54:35 10° NW 16:03:31 45° NNE 16:12:17 10° E daylight
06 Mar - 17:59:44 10° NW 18:09:02 74° SW 18:18:17 10° SE daylight
06 Mar - 20:07:19 10° W 20:12:53 18° SW 20:18:28 10° SSW daylight
07 Mar - 09:13:11 10° SSW 09:22:42 52° SE 09:31:55 10° ENE visible
07 Mar - 11:18:07 10° WSW 11:27:46 58° NNW 11:37:06 10° NE visible
07 Mar - 13:26:05 10° WNW 13:34:35 34° N 13:42:53 10° ENE visible
07 Mar - 15:32:53 10° NW 15:41:47 43° NNE 15:50:31 10° E daylight
07 Mar - 17:38:04 10° NW 17:47:23 78° SW 17:56:40 10° SE daylight
07 Mar - 19:45:20 10° W 19:51:17 19° SW 19:57:17 10° SSW daylight
